This is the latest recevied weather packets stored in our database for station/object IV3ONZ. If no packets are shown the sender has not sent any weather packets the latest 10 day(s).
| Time | Temp. | Humidity | Pressure | Rain* | Wind** | Luminosity | Snow |
|---|---|---|---|---|---|---|---|
| 1777527004 | 10.56° C | 40% | 1027 hPa | 0 mm | - | 141 W/m² | - |
| 1777522204 | 10.56° C | 43% | 1026.6 hPa | 0 mm | - | 11 W/m² | - |
| 1777521304 | 10° C | 45% | 1026.4 hPa | 0 mm | - | 3 W/m² | - |
| 1777521004 | 10° C | 44% | 1026.3 hPa | 0 mm | - | 1 W/m² | - |
| 1777520403 | 10° C | 44% | 1026.2 hPa | 0 mm | - | 0 W/m² | - |
| 1777509303 | 11.67° C | 51% | 1025.4 hPa | 0 mm | - | 0 W/m² | - |
| 1777509003 | 11.67° C | 54% | 1025.2 hPa | 0 mm | - | 0 W/m² | - |
| 1777508704 | 12.22° C | 54% | 1025.6 hPa | 0 mm | - | 0 W/m² | - |
| 1777507503 | 12.78° C | 51% | 1025.2 hPa | 0 mm | - | 0 W/m² | - |
| 1777504804 | 13.33° C | 45% | 1024.9 hPa | 0 mm | - | 0 W/m² | - |
| 1777502404 | 13.33° C | 48% | 1024.4 hPa | 0 mm | - | 0 W/m² | - |
| 1777500604 | 13.33° C | 48% | 1024.1 hPa | 0 mm | - | 0 W/m² | - |
| 1777500438 | 13.33° C | 48% | 1024.1 hPa | 0 mm | - | 0 W/m² | - |
| 1777497604 | 13.33° C | 55% | 1023.5 hPa | 0 mm | - | 0 W/m² | - |
| 1777497004 | 13.33° C | 56% | 1023.4 hPa | 0 mm | - | 0 W/m² | - |
| 1777492504 | 13.33° C | 65% | 1022.7 hPa | 0 mm | - | 0 W/m² | - |
| 1777491005 | 12.22° C | 72% | 1022.5 hPa | 0 mm | - | 0 W/m² | - |
| 1777487233 | 13.33° C | 67% | 1021.8 hPa | 0 mm | - | 0 W/m² | - |
| 1777486634 | 13.33° C | 68% | 1021.9 hPa | 0 mm | - | 0 W/m² | - |
| 1777485904 | 13.33° C | 67% | 1021.5 hPa | 0 mm | - | 3 W/m² | - |
| 1777485604 | 13.33° C | 67% | 1021.4 hPa | 0 mm | - | 5 W/m² | - |
| 1777484703 | 13.33° C | 67% | 1021.5 hPa | 0 mm | - | 13 W/m² | - |
| 1777483634 | 13.33° C | 69% | 1021.3 hPa | 0 mm | - | 29 W/m² | - |
| 1777482904 | 13.33° C | 72% | 1021.1 hPa | 0 mm | - | 46 W/m² | - |
| 1777477803 | 13.89° C | 76% | 1021.2 hPa | 0 mm | - | 63 W/m² | - |
* Rain latest hour (hover to see other rain measurements)
** Current wind speed in m/s (hover to see current wind gust speed)